Temperature
20 20 19 19 20 21 23 24 26 26 27 27 27 27 26 24 23 21 20 20 19 19 19 19 19 18 18 18 18 18 18 18 18 18 18 18 18 18 18 18 18 18 18 18 18 18 18 18 18
20 20 20 20 21 23 24 25 26 27 27 27 27 27 26 24 23 21 20 20 20 19 18 18 18 18 18 18 18 18 18 17 17 17 17 17 18 18 18 18 18 18 18 18 18 18 18 18 18
20 20 20 21 23 24 24 25 26 27 27 27 27 26 25 23 22 21 20 20 20 19 19 19 18 18 18 18 18 18 17 17 17 17 17 17 17 17 18 18 18 18 18 18 18 18 18 18 18
20 21 21 22 24 25 26 26 27 27 27 27 27 26 24 23 22 21 21 20 20 19 19 19 19 18 18 18 18 17 17 17 17 17 17 17 17 17 17 17 17 17 17 17 17 18 18 18 18
21 21 22 23 25 26 27 27 27 27 27 27 26 25 23 22 21 21 21 20 20 19 19 19 18 18 18 18 17 17 17 17 17 17 17 17 17 17 17 17 17 17 17 17 17 17 18 18 18
21 23 23 24 25 26 27 27 27 27 27 27 26 25 23 22 21 21 21 20 20 19 19 19 18 18 18 17 17 17 17 17 17 17 17 16 16 17 17 17 17 17 17 17 17 17 17 17 18
22 22 23 24 24 25 26 27 27 27 27 27 26 25 23 22 21 21 21 21 20 20 19 19 19 18 18 17 17 17 17 17 17 16 16 16 16 16 16 16 16 16 16 16 17 17 17 17 17
22 23 24 24 24 25 26 26 26 26 26 26 26 25 23 22 22 21 21 21 20 20 20 19 19 18 18 17 17 17 17 16 16 16 16 16 16 16 16 16 16 16 16 16 16 17 17 17 17
23 23 23 24 25 25 26 26 26 26 26 26 26 25 23 22 22 22 21 21 21 20 20 20 19 19 18 17 17 17 17 16 16 16 16 16 16 16 16 16 16 16 16 16 16 16 17 17 17
23 22 24 25 26 26 26 26 26 27 26 26 26 24 23 22 22 22 22 22 21 21 20 20 19 19 18 18 17 17 16 16 16 16 16 16 16 16 16 16 16 15 16 16 16 16 16 17 17
25 24 25 26 26 26 26 26 26 27 26 26 25 25 23 23 22 22 22 22 21 21 20 20 19 19 18 18 17 17 17 16 16 16 16 16 15 15 15 15 15 15 15 15 15 16 16 16 16
25 26 27 27 27 27 26 27 27 26 26 26 26 25 24 23 23 23 23 22 22 21 20 20 19 19 18 18 17 17 17 16 16 16 16 15 15 15 15 15 15 15 15 15 15 15 16 16 16
25 26 26 27 27 27 27 27 27 27 26 26 26 25 24 24 24 23 23 22 22 21 20 19 19 19 18 18 17 17 17 16 16 15 15 15 15 15 15 15 15 15 15 15 15 15 15 16 16
26 26 26 26 27 27 27 27 27 27 26 26 26 25 25 24 24 24 23 22 22 21 20 19 19 18 18 18 17 17 16 16 16 15 15 15 15 15 15 15 15 15 15 15 15 15 15 15 16
26 26 26 26 26 27 27 26 26 26 26 26 26 25 25 24 24 24 23 22 22 21 20 19 19 18 18 17 17 16 16 16 15 15 15 15 15 15 15 14 14 14 14 14 14 15 15 15 15
26 25 24 25 26 27 26 24 25 26 26 26 26 25 25 24 24 24 23 22 22 21 20 19 19 18 17 17 16 16 16 16 15 15 15 14 14 14 14 14 14 14 14 14 14 14 14 15 15
24 24 24 24 26 26 26 25 26 26 26 26 26 26 25 24 24 23 23 22 21 21 20 19 18 18 17 17 16 16 16 15 15 15 14 14 14 14 14 14 14 14 14 14 14 14 14 14 15
23 23 24 24 25 25 25 25 26 26 26 26 26 26 25 25 24 23 22 21 21 20 20 19 18 17 17 16 16 16 15 15 15 15 14 14 14 14 13 13 13 14 14 14 14 14 14 14 14
24 24 24 24 26 25 25 26 26 26 26 26 27 27 26 25 24 23 22 21 21 20 19 19 18 17 17 16 16 15 15 15 15 14 14 14 14 13 13 13 13 13 13 13 13 14 14 14 14
24 24 24 25 26 26 26 26 27 27 27 27 27 27 26 25 24 22 22 21 21 20 19 18 18 17 16 16 15 15 15 15 15 14 14 14 13 13 13 13 13 13 13 13 13 13 13 14 14
24 24 25 24 25 25 26 26 26 26 27 26 26 26 26 25 24 22 22 21 20 19 19 18 17 17 16 16 15 15 15 15 14 14 14 14 13 13 13 13 13 13 13 13 13 13 13 13 14
24 25 26 25 24 24 25 24 25 26 25 26 26 26 26 25 24 22 21 21 20 19 18 18 17 17 16 16 15 15 15 14 14 14 14 14 14 13 13 13 13 13 13 13 13 13 13 13 13
25 26 25 25 25 25 26 25 25 26 25 26 26 26 25 25 24 22 21 21 20 19 18 18 17 17 16 16 15 15 15 14 14 14 14 14 14 13 13 13 13 13 13 13 13 13 13 13 13
26 25 25 25 25 24 25 25 25 26 26 26 27 26 25 24 24 22 21 20 20 19 18 17 17 17 16 16 16 15 15 14 14 14 14 14 14 13 13 13 13 13 13 13 13 13 13 13 13
25 24 23 23 23 24 26 26 25 26 27 27 27 26 25 24 23 22 21 20 19 19 18 17 17 16 16 16 16 15 15 15 14 14 14 14 14 14 13 13 13 13 13 13 13 13 13 13 13
25 24 22 21 21 23 25 25 26 27 27 27 27 26 25 24 23 22 21 20 19 18 18 17 17 16 16 16 16 15 15 15 14 14 14 14 14 14 13 13 13 13 13 13 13 13 12 12 13
25 24 24 23 22 22 25 26 26 27 26 27 26 25 25 24 23 22 21 20 19 18 18 17 17 16 16 16 16 15 15 15 14 14 14 14 14 14 13 13 13 13 13 13 12 12 12 12 13
26 25 24 24 23 23 24 25 25 25 26 26 26 25 25 24 23 22 21 20 19 19 18 17 17 17 16 16 16 15 15 15 14 14 14 14 14 14 13 13 13 13 13 13 12 12 12 12 12
26 25 25 25 25 23 23 24 27 26 27 27 26 26 25 24 23 22 21 21 20 19 18 18 17 17 16 16 16 15 15 15 14 14 14 14 14 14 13 13 13 13 13 13 13 12 12 12 12
26 26 25 24 24 24 24 24 28 28 27 27 27 26 25 25 24 23 22 21 20 19 19 18 18 17 16 16 16 15 15 15 14 14 14 14 14 14 13 13 13 13 13 13 13 13 12 12 12
Wind_Speed
8 9 7 3 3 4 1 2 3 4 5 8 7 7 10 12 8 7 4 7 11 13 14 13 11 10 9 8 7 7 6 5 4 4 3 3 4 4 4 5 5 6 6 5 5 5 5 4 4
8 7 4 3 3 2 2 4 5 6 6 4 4 7 11 11 11 9 5 7 11 12 13 12 11 9 8 7 6 6 5 5 4 4 4 3 3 4 4 5 5 6 6 6 5 5 5 4 4
9 6 4 3 3 2 2 4 3 5 5 5 5 9 8 7 9 7 7 9 11 12 14 13 11 9 8 7 6 5 5 4 4 4 4 4 4 4 4 5 6 6 6 6 5 5 5 4 4
5 3 4 5 5 2 2 4 3 3 3 4 5 7 8 9 7 9 9 10 11 12 14 14 11 9 7 6 5 5 4 4 4 4 4 4 4 4 4 4 5 6 6 6 5 5 5 4 4
4 3 5 5 3 2 3 3 2 2 4 6 8 8 9 11 12 10 8 9 10 11 13 14 12 10 8 6 5 5 4 4 4 4 4 4 4 4 4 4 4 5 6 6 5 5 5 5 4
3 4 5 4 2 2 3 2 3 4 4 4 6 8 8 11 10 9 8 7 9 9 10 14 14 11 9 7 6 4 4 3 3 3 3 3 4 4 4 4 4 5 6 6 5 5 5 5 5
3 5 6 6 2 1 2 3 3 3 4 5 4 6 9 11 9 8 8 7 8 8 8 10 13 12 11 9 7 5 3 2 1 1 2 4 5 6 7 5 4 5 6 6 5 6 6 6 6
3 4 7 5 2 1 3 2 2 3 3 4 2 4 8 12 10 9 8 8 7 7 6 7 8 10 10 10 9 7 5 4 3 4 5 6 8 10 10 7 5 4 5 6 6 7 7 7 8
4 4 5 5 2 1 1 1 1 1 2 2 4 8 12 13 11 9 7 6 6 6 5 5 5 5 6 7 8 8 8 6 7 7 8 7 8 7 6 5 5 6 7 8 7 7 8 9 9
5 4 6 4 2 1 1 1 2 2 2 2 6 10 13 12 10 9 7 6 6 5 4 5 4 4 3 3 5 3 4 5 5 3 3 4 5 5 4 2 6 7 8 9 10 10 10 9 7
7 8 7 6 4 2 2 3 3 3 2 2 6 10 13 11 9 8 7 6 6 5 4 4 3 4 3 3 2 0 1 2 1 3 4 3 4 4 4 1 3 6 7 6 6 7 7 6 4
10 11 9 6 4 4 4 4 3 3 2 2 6 10 12 10 10 9 7 6 6 7 5 4 2 3 2 3 1 0 1 1 1 4 6 3 1 2 2 1 2 2 2 2 2 3 4 3 3
13 11 10 7 6 6 6 7 4 4 3 4 6 9 10 10 8 8 6 6 6 7 7 5 2 2 2 3 1 2 2 2 2 3 4 3 1 3 3 2 1 2 3 2 2 3 4 3 3
10 8 8 9 7 7 7 7 5 5 5 6 7 9 9 8 7 6 6 6 5 7 7 6 3 2 3 3 3 3 2 1 2 3 4 4 2 2 2 3 3 2 2 3 2 4 4 3 2
11 10 9 7 8 7 5 6 6 5 4 7 7 8 8 7 6 6 7 5 6 7 7 6 3 3 3 4 4 3 2 2 2 2 4 5 4 3 2 3 3 3 3 3 3 4 3 3 2
11 10 8 6 8 6 5 6 4 4 5 6 6 7 8 7 6 6 7 6 6 7 7 7 4 3 4 4 2 2 2 2 2 2 4 6 6 5 2 3 4 4 2 2 3 3 3 3 2
9 8 8 8 8 6 6 5 4 6 7 7 7 8 10 8 7 6 7 6 6 7 7 7 6 3 5 3 0 1 2 2 1 2 3 5 6 6 3 3 3 4 3 3 4 2 2 3 3
6 8 7 6 5 6 7 6 5 6 7 7 7 8 11 10 8 7 7 6 7 6 6 6 6 5 4 2 1 2 2 3 2 1 2 4 4 5 4 3 4 3 3 3 3 4 3 2 3
7 9 8 6 4 6 8 8 6 7 8 8 8 8 9 11 11 9 8 7 7 6 6 6 5 5 4 2 2 2 2 2 2 2 3 3 4 4 3 3 4 3 3 3 4 3 3 3 2
9 10 8 6 3 5 8 10 7 7 7 6 6 6 8 9 11 10 9 7 6 6 5 6 5 5 5 3 1 0 1 2 1 1 2 3 3 3 4 4 3 3 3 3 3 3 2 2 2
9 9 7 5 5 8 9 9 5 5 6 6 5 3 6 9 10 12 9 8 7 7 6 5 5 5 5 3 1 2 1 2 1 1 1 2 2 1 2 3 3 4 3 2 3 3 2 2 3
7 6 5 6 6 5 7 5 4 6 7 7 7 6 6 8 9 10 9 8 7 7 6 5 5 5 5 3 2 1 1 1 2 2 1 2 1 1 1 2 3 3 3 3 3 2 1 1 2
4 5 7 8 8 9 9 6 3 7 7 8 9 8 8 8 8 10 9 8 7 7 6 5 5 4 4 2 3 1 1 1 1 1 2 2 2 1 0 1 2 2 2 2 3 3 2 1 2
4 6 8 9 8 8 8 5 1 3 7 8 10 9 9 9 9 9 9 8 7 7 6 5 5 4 3 2 2 2 1 1 1 2 2 2 2 2 2 1 2 2 1 2 2 2 2 2 2
5 5 3 3 3 4 3 3 2 5 5 6 9 10 10 9 9 9 10 9 8 7 6 5 5 4 3 1 1 2 2 0 1 2 2 2 2 2 3 3 2 2 1 1 2 2 2 2 2
5 5 1 2 3 3 3 2 6 8 6 6 7 8 8 9 9 9 10 9 8 8 7 6 6 4 3 2 0 1 1 1 0 1 1 2 2 2 2 3 2 2 2 2 2 2 2 2 2
3 3 4 3 6 4 3 3 8 9 8 6 8 9 7 8 9 9 10 9 9 8 7 6 6 5 4 3 2 1 1 1 1 2 2 2 2 2 3 3 3 2 2 2 2 1 2 2 2
4 3 3 3 2 3 3 1 3 8 8 8 8 9 9 9 9 9 9 9 8 8 7 7 6 5 4 3 2 3 1 1 1 1 3 3 3 3 3 3 2 1 1 1 1 1 2 1 2
6 6 5 4 3 2 2 2 4 5 5 5 6 8 9 9 9 9 9 9 9 9 8 7 7 5 4 3 3 3 1 1 1 1 2 2 2 2 3 3 2 1 1 1 1 1 2 2 2
4 5 5 3 4 4 3 1 3 5 4 4 3 5 7 8 8 9 9 9 8 8 8 8 7 6 5 4 3 3 2 2 1 1 2 2 2 2 3 3 3 2 2 2 2 2 1 1 1
Wind_Direction
218 230 231 244 251 237 316 64 53 46 42 36 32 44 63 54 51 89 145 121 113 114 116 110 103 96 91 87 82 77 71 66 58 49 45 32 14 3 0 354 343 335 330 330 333 332 328 333 339
234 228 238 241 256 273 68 70 54 54 58 33 40 52 72 68 76 100 120 110 115 112 109 109 107 100 95 90 83 74 68 59 53 48 46 36 19 6 358 350 340 331 324 319 320 323 322 321 318
242 241 250 241 261 337 62 79 71 63 55 38 49 59 60 71 80 106 124 123 112 109 109 112 111 104 100 94 87 78 68 58 48 40 32 25 16 4 355 346 336 331 325 319 317 319 321 318 312
228 236 247 251 274 17 72 92 83 73 66 55 55 71 74 72 89 112 124 122 112 111 113 119 118 112 105 98 91 81 69 54 42 33 20 10 1 354 348 335 329 325 317 311 312 315 312 314 307
234 250 258 260 282 34 61 62 68 66 64 56 73 85 92 90 102 114 118 116 117 118 122 130 129 125 118 108 94 80 68 52 34 23 16 3 347 332 329 323 319 318 312 306 308 307 302 300 298
258 259 271 287 334 54 77 46 18 38 76 79 97 104 106 120 122 126 123 127 121 122 127 134 142 142 138 130 115 93 74 58 40 20 6 345 328 310 293 295 299 306 312 310 302 299 294 284 285
258 276 278 295 337 54 60 25 14 21 48 54 72 107 125 130 131 137 138 130 121 123 128 142 151 156 152 145 135 122 110 94 45 323 308 294 281 274 266 263 277 297 308 308 300 292 287 278 271
256 280 289 303 323 47 41 7 3 13 55 61 37 96 128 135 146 146 143 138 135 133 139 142 149 149 152 153 151 156 166 180 217 238 252 266 271 264 251 245 242 268 286 289 287 280 277 269 258
260 264 287 306 333 42 95 312 357 8 88 87 72 94 127 140 150 150 152 148 139 143 145 134 123 116 132 147 151 173 184 198 225 235 236 255 270 275 245 214 211 242 261 267 266 268 264 262 255
217 258 274 285 326 3 337 301 290 256 188 146 112 116 132 148 155 161 164 155 146 145 131 113 110 114 105 96 127 176 175 184 233 255 210 258 309 328 317 196 223 240 250 256 252 255 260 256 248
232 250 272 288 302 285 270 256 245 256 242 187 145 142 146 158 164 173 171 159 146 130 106 100 104 111 116 110 101 111 122 143 277 5 4 356 347 331 318 277 230 238 245 247 248 244 250 245 239
240 258 269 276 282 275 274 264 243 254 257 189 143 147 158 172 175 180 172 149 141 126 119 100 86 102 100 98 80 152 69 47 28 33 6 360 2 329 319 316 332 307 285 263 262 242 253 251 248
239 249 270 264 259 261 259 255 252 239 205 176 149 159 170 178 179 175 158 144 142 135 133 112 81 59 61 90 66 59 68 35 16 49 349 346 5 332 334 322 330 319 316 306 300 285 275 257 239
251 257 258 263 255 255 255 259 236 228 183 180 170 174 175 172 176 167 155 152 149 133 127 119 115 69 45 55 44 36 48 84 24 36 337 349 7 334 323 321 320 298 297 297 291 288 289 271 250
263 261 253 253 258 248 253 264 246 234 192 187 185 175 162 163 169 172 151 149 140 129 125 122 124 92 61 55 38 18 14 44 29 20 349 348 360 340 344 339 328 310 310 318 314 310 314 298 277
256 252 256 254 248 240 230 255 231 198 203 201 185 166 157 163 172 161 143 141 129 122 122 119 111 92 75 62 32 4 19 38 10 16 8 349 356 359 360 342 321 312 326 315 301 291 299 296 281
256 257 260 258 241 240 233 259 207 180 208 205 190 172 163 164 172 152 139 133 123 121 122 121 114 100 84 72 67 27 16 23 7 17 19 356 351 353 350 326 309 318 331 324 313 323 308 295 291
255 262 262 265 242 250 251 254 229 205 212 214 194 185 173 166 167 146 133 128 129 126 126 120 117 100 85 78 29 46 32 5 357 11 23 5 350 351 345 324 326 336 334 322 314 312 296 277 272
268 279 278 265 232 250 264 265 232 201 200 208 204 195 173 160 155 142 135 139 137 129 122 113 114 107 95 64 35 31 21 339 347 4 23 10 356 350 340 332 330 332 324 312 310 305 305 295 281
255 265 275 284 263 262 267 266 249 196 193 209 214 196 163 151 148 139 142 146 142 130 118 119 118 110 99 90 43 59 31 299 8 7 12 0 352 353 343 341 326 319 311 306 310 310 298 291 292
258 265 277 285 282 275 271 258 228 207 183 191 210 181 150 154 152 145 149 143 139 132 128 129 116 113 105 109 69 12 11 320 352 358 26 336 331 7 356 332 325 316 308 303 301 291 279 274 288
256 275 281 276 274 274 266 275 215 172 175 189 185 166 150 139 140 140 146 143 142 135 133 132 126 119 122 133 111 10 2 2 358 359 4 323 345 22 12 325 316 310 308 312 305 316 302 284 287
266 288 283 276 272 272 263 265 189 166 179 185 171 156 144 142 143 141 143 141 144 137 133 133 129 125 124 130 136 177 33 3 346 351 349 336 346 334 327 312 300 295 301 310 314 323 325 291 271
268 273 268 260 260 263 258 258 196 176 166 161 151 145 143 144 141 139 136 134 132 127 130 135 132 128 125 152 169 158 111 331 339 344 349 329 318 332 357 356 317 310 335 330 320 314 314 302 290
241 263 301 285 244 256 256 237 140 101 98 131 140 144 144 142 141 140 139 140 137 138 144 148 140 135 136 163 232 123 120 354 10 345 331 324 331 350 2 4 338 342 346 323 311 313 312 306 302
237 241 228 293 306 309 259 204 112 116 101 106 115 119 129 139 141 145 145 147 149 153 158 163 152 151 155 169 213 33 89 106 17 314 333 340 344 7 6 344 334 341 350 343 318 297 293 294 295
232 235 228 247 275 279 255 143 124 126 131 140 140 135 149 153 151 154 152 153 157 160 164 170 156 157 165 172 171 124 31 45 18 356 357 353 344 358 6 345 349 357 360 355 338 315 305 318 309
265 278 267 257 305 304 319 353 128 146 153 162 163 161 166 162 160 160 157 159 161 161 164 165 160 162 168 174 173 132 113 71 42 5 353 351 351 3 348 336 337 347 350 329 342 335 324 315 298
214 239 253 278 282 296 335 9 81 118 130 158 172 166 161 160 162 162 159 159 162 163 167 168 167 163 161 165 148 125 136 116 65 27 353 352 356 349 332 328 332 347 6 354 8 352 345 332 327
261 264 269 284 304 304 303 0 107 119 129 143 146 144 151 156 160 159 156 156 163 167 168 168 167 163 160 159 148 138 138 113 60 11 356 354 355 347 333 345 357 16 17 5 6 341 360 347 351
Height
1500 1501 1502 1504 1504 1505 1501 1492 1485 1485 1484 1485 1485 1485 1488 1493 1498 1509 1509 1507 1508 1508 1508 1508 1509 1510 1510 1511 1511 1512 1513 1513 1514 1514 1515 1515 1516 1516 1516 1516 1517 1517 1518 1518 1518 1518 1518 1518 1519
1500 1502 1504 1503 1504 1506 1500 1488 1486 1485 1485 1486 1486 1487 1490 1495 1500 1505 1506 1508 1508 1508 1508 1509 1510 1510 1511 1511 1511 1512 1512 1513 1513 1514 1514 1515 1515 1515 1515 1516 1516 1516 1517 1517 1517 1517 1517 1518 1518
1500 1502 1503 1501 1499 1500 1496 1487 1485 1484 1485 1486 1487 1489 1493 1499 1502 1505 1507 1508 1509 1509 1509 1510 1510 1511 1511 1511 1511 1512 1512 1512 1513 1513 1513 1514 1514 1514 1514 1514 1514 1515 1515 1516 1516 1516 1516 1516 1517
1501 1502 1501 1499 1496 1488 1485 1484 1483 1484 1486 1487 1487 1491 1497 1501 1503 1505 1507 1508 1509 1510 1510 1510 1510 1511 1511 1511 1511 1512 1512 1512 1512 1512 1512 1512 1512 1512 1513 1512 1513 1513 1514 1514 1514 1515 1515 1515 1516
1501 1501 1500 1497 1490 1483 1481 1483 1484 1484 1486 1487 1489 1494 1500 1503 1504 1506 1508 1509 1510 1510 1510 1510 1511 1511 1511 1511 1511 1511 1511 1511 1512 1512 1511 1511 1511 1511 1511 1511 1511 1512 1512 1512 1513 1513 1513 1513 1514
1501 1498 1501 1498 1490 1484 1482 1483 1484 1484 1486 1487 1490 1494 1500 1503 1505 1506 1508 1509 1510 1510 1510 1510 1510 1511 1511 1511 1511 1511 1511 1511 1510 1510 1510 1510 1510 1510 1509 1510 1510 1510 1510 1510 1510 1511 1511 1512 1512
1501 1498 1497 1492 1491 1486 1483 1484 1485 1485 1486 1488 1490 1493 1499 1502 1504 1506 1508 1509 1510 1511 1511 1511 1510 1510 1510 1510 1510 1510 1510 1510 1509 1509 1509 1509 1508 1508 1508 1508 1508 1508 1508 1508 1508 1509 1509 1510 1510
1498 1497 1494 1492 1491 1488 1484 1485 1486 1487 1488 1490 1491 1492 1498 1502 1504 1506 1508 1509 1510 1511 1511 1512 1511 1511 1510 1510 1510 1509 1509 1509 1508 1508 1508 1508 1507 1507 1507 1507 1507 1507 1506 1506 1506 1506 1507 1507 1508
1496 1499 1498 1493 1489 1486 1484 1485 1486 1487 1488 1490 1491 1493 1497 1500 1503 1505 1507 1508 1509 1511 1511 1512 1512 1512 1511 1511 1510 1509 1508 1508 1508 1507 1507 1507 1507 1506 1507 1506 1506 1505 1505 1504 1504 1504 1505 1505 1506
1494 1498 1492 1485 1483 1483 1484 1485 1486 1487 1487 1489 1491 1494 1497 1500 1502 1504 1506 1507 1509 1510 1511 1511 1512 1511 1511 1511 1510 1509 1509 1508 1508 1507 1507 1506 1506 1506 1506 1505 1505 1504 1503 1503 1502 1503 1503 1503 1504
1488 1489 1484 1482 1482 1482 1483 1484 1485 1486 1487 1488 1490 1493 1496 1499 1501 1503 1504 1506 1507 1509 1510 1511 1511 1511 1511 1510 1510 1509 1509 1508 1508 1507 1507 1506 1505 1505 1505 1504 1503 1503 1502 1501 1501 1501 1501 1502 1502
1484 1482 1480 1480 1480 1481 1482 1483 1483 1485 1486 1487 1489 1491 1494 1497 1499 1501 1503 1504 1506 1507 1509 1510 1510 1510 1510 1509 1509 1509 1508 1508 1507 1506 1505 1505 1504 1504 1503 1503 1502 1502 1501 1501 1500 1500 1500 1500 1501
1480 1479 1480 1479 1479 1480 1480 1481 1482 1483 1484 1486 1488 1491 1493 1495 1498 1500 1502 1503 1505 1506 1507 1509 1509 1510 1510 1509 1508 1508 1507 1507 1506 1505 1504 1504 1503 1502 1502 1501 1500 1500 1500 1499 1499 1499 1499 1499 1499
1477 1476 1476 1478 1477 1478 1478 1478 1480 1480 1482 1484 1486 1489 1491 1494 1496 1498 1500 1502 1504 1505 1506 1507 1508 1509 1509 1508 1507 1507 1506 1506 1505 1504 1503 1503 1502 1501 1500 1499 1499 1498 1498 1498 1497 1497 1497 1497 1497
1475 1476 1475 1475 1476 1475 1477 1479 1478 1478 1480 1482 1484 1487 1490 1493 1495 1497 1499 1501 1502 1504 1505 1506 1507 1508 1508 1507 1506 1506 1506 1505 1504 1503 1502 1502 1500 1499 1498 1497 1497 1497 1496 1496 1495 1495 1495 1495 1495
1474 1476 1481 1475 1473 1474 1479 1484 1476 1475 1478 1480 1482 1484 1488 1491 1494 1496 1498 1500 1501 1503 1504 1505 1506 1506 1506 1505 1505 1505 1505 1504 1503 1502 1501 1500 1499 1498 1497 1496 1495 1495 1494 1494 1494 1493 1493 1493 1493
1477 1482 1483 1478 1472 1472 1475 1478 1473 1473 1475 1477 1479 1482 1485 1489 1492 1494 1496 1498 1500 1502 1503 1504 1505 1505 1505 1504 1504 1504 1503 1503 1502 1501 1500 1498 1497 1496 1495 1494 1493 1493 1492 1492 1492 1492 1491 1491 1491
1486 1485 1483 1480 1473 1472 1475 1474 1472 1472 1473 1475 1477 1479 1482 1485 1489 1492 1495 1497 1499 1501 1502 1503 1503 1504 1504 1504 1503 1503 1502 1501 1501 1500 1498 1497 1496 1494 1493 1492 1491 1491 1490 1490 1490 1489 1489 1489 1490
1478 1481 1481 1477 1470 1472 1473 1470 1468 1468 1470 1472 1474 1476 1479 1482 1487 1490 1493 1496 1498 1500 1501 1502 1503 1503 1502 1502 1502 1501 1501 1500 1500 1499 1497 1496 1494 1493 1492 1490 1490 1489 1489 1488 1488 1488 1487 1488 1488
1477 1480 1478 1474 1468 1470 1471 1468 1464 1465 1466 1469 1471 1473 1476 1480 1484 1488 1492 1495 1497 1499 1500 1501 1502 1502 1501 1501 1501 1501 1500 1500 1499 1498 1496 1495 1493 1492 1490 1489 1488 1487 1487 1486 1486 1486 1486 1486 1487
1475 1477 1476 1476 1471 1469 1470 1470 1464 1463 1465 1468 1470 1472 1475 1479 1482 1486 1490 1493 1496 1498 1499 1500 1500 1501 1500 1500 1500 1500 1500 1499 1498 1497 1496 1494 1493 1491 1489 1488 1487 1486 1485 1485 1485 1485 1485 1485 1486
1478 1469 1469 1472 1477 1480 1472 1482 1467 1462 1464 1466 1469 1471 1474 1478 1481 1485 1489 1492 1494 1496 1498 1499 1499 1500 1500 1500 1500 1499 1499 1499 1498 1497 1495 1493 1492 1490 1488 1487 1485 1484 1484 1484 1483 1484 1484 1484 1484
1471 1467 1468 1469 1473 1476 1469 1475 1470 1461 1466 1465 1466 1470 1474 1478 1481 1484 1488 1491 1493 1495 1496 1498 1498 1499 1499 1499 1499 1499 1498 1498 1497 1496 1495 1493 1492 1490 1488 1486 1485 1484 1483 1482 1482 1482 1482 1482 1483
1465 1467 1467 1467 1472 1485 1471 1474 1475 1462 1461 1462 1464 1468 1473 1477 1481 1484 1487 1490 1492 1494 1495 1497 1497 1498 1498 1498 1498 1498 1497 1497 1496 1495 1494 1492 1491 1490 1488 1486 1484 1483 1482 1481 1481 1481 1481 1481 1481
1468 1478 1491 1492 1491 1485 1464 1469 1471 1459 1456 1459 1462 1467 1472 1476 1480 1483 1486 1488 1491 1492 1494 1495 1496 1497 1497 1498 1498 1497 1497 1496 1496 1494 1493 1492 1491 1489 1487 1485 1484 1482 1481 1480 1480 1479 1479 1479 1480
1469 1475 1497 1509 1504 1487 1470 1470 1463 1455 1457 1460 1463 1467 1471 1475 1479 1482 1485 1487 1489 1491 1493 1494 1495 1496 1496 1497 1497 1497 1496 1495 1495 1494 1493 1492 1490 1488 1487 1485 1483 1482 1481 1479 1479 1478 1478 1478 1478
1470 1474 1474 1486 1489 1492 1476 1462 1459 1455 1458 1461 1464 1468 1472 1475 1478 1481 1483 1485 1487 1489 1491 1493 1494 1494 1495 1495 1496 1495 1495 1495 1494 1493 1492 1491 1490 1488 1486 1484 1483 1481 1480 1479 1478 1477 1477 1477 1477
1464 1466 1473 1481 1493 1496 1481 1470 1468 1461 1460 1461 1463 1467 1470 1473 1476 1479 1481 1484 1486 1488 1489 1491 1492 1493 1494 1494 1495 1495 1494 1494 1493 1492 1491 1490 1489 1487 1486 1484 1483 1481 1480 1479 1478 1477 1476 1476 1476
1466 1468 1469 1471 1474 1491 1496 1483 1456 1457 1457 1458 1461 1464 1467 1471 1474 1477 1479 1482 1484 1486 1487 1489 1490 1492 1492 1493 1494 1493 1493 1493 1492 1492 1491 1489 1488 1487 1485 1484 1482 1481 1480 1479 1478 1477 1476 1476 1476
1460 1463 1467 1480 1480 1476 1484 1480 1452 1452 1454 1457 1459 1462 1465 1468 1472 1474 1477 1480 1482 1484 1486 1487 1489 1490 1491 1492 1492 1492 1492 1492 1491 1491 1490 1489 1488 1486 1485 1484 1482 1481 1480 1479 1478 1477 1476 1475 1475